Location: Newark
(37.7892°N, 97.1083°W)
Time: 07:48:35
(UTC+00:00)

Hubble Space Telescope - Visible Passes

Search period start: 06 December 2019 00:00
Search period end: 16 December 2019 00:00
Orbit: 536 x 540 km, 28.5° (Epoch: 05 December)

Date Brightness Start Highest point End Pass type
(mag) Time Alt. Az. Time Alt. Az. Time Alt. Az.
14 Dec 3.6 11:36:36 10° S 11:37:44 11° SSE 11:38:51 10° SE visible
15 Dec 3.4 11:25:33 11° S 11:27:00 13° SSE 11:28:56 10° SE visible
15 Dec 3.0 13:04:21 10° SW 13:07:32 21° S 13:10:44 10° SE visible
